Regional Weather Roundup
Issued by NWS

Home | Current Version | Previous Version | Graphics & Text | Print | Product List | Glossary On
Versions: 1 2 3 4 5 6 7 8 9 10 11 12 13 14 15 16 17 18 19 20 21 22 23 24 25 26 27 28 29 30 31 32 33 34 35 36 37 38 39 40 41 42 43 44 45 46 47 48 49 50
832
ASUS45 KSLC 210110
RWRUT

UTAH REGIONAL WEATHER ROUNDUP
NATIONAL WEATHER SERVICE SALT LAKE CITY UT
600 PM MST FRI JAN 20 2017

UTZ001>011-023>025-210200-

NORTHERN UTAH

CITY           SKY/WX    TMP DP  RH WIND       PRES   REMARKS
BRIGHAM CITY     N/A     29  26  88 NW5       29.37F WCI  24
HILL AFB       MOCLDY    35  27  73 SE8       29.35F WCI  28
LOGAN          CLOUDY    28  26  92 CALM      29.38F FOG
OGDEN          CLOUDY    30  28  92 N6        29.35F FOG     WCI  24
SALT LAKE CITY CLOUDY    40  26  57 S17G23    29.34F WCI  31
TOOELE VALLEY  CLOUDY    32  32 100 CALM      29.36F FOG
WENDOVER       CLOUDY    27  25  93 W3        29.35F
HEBER CITY     CLOUDY    32  23  69 SE5       29.37F WCI  27
WEST JORDAN    CLOUDY    34  34  99 S12G25    29.36F WCI  25

$$

UTZ011>015-024>027-210200-

CENTRAL/NORTHEAST UTAH

CITY           SKY/WX    TMP DP  RH WIND       PRES   REMARKS
PROVO AIRPORT  CLOUDY    36  28  73 SE8       29.38F WCI  30
MOAB/CANYONLAN CLOUDY    33  32  96 CALM      29.50R
DELTA          CLOUDY    32  32 100 CALM      29.36F
PRICE          LGT SNOW  28  27  96 E6        29.45F FOG     WCI  22
ROOSEVELT      CLOUDY    23  19  86 CALM      29.54S
VERNAL         CLOUDY    21  17  84 CALM      29.52S

$$

UTZ013>016-019>022-027-210200-

SOUTHERN UTAH

CITY           SKY/WX    TMP DP  RH WIND       PRES   REMARKS
BRYCE CANYON   SNOW      26  24  92 SE23      29.40F VSB 1/2 WCI  11
CEDAR CITY     CLOUDY    33  28  81 SW16G23   29.34R WCI  23
MILFORD        LGT SNOW  34  32  92 SW10      29.34F FOG     WCI  26
ST GEORGE      CLOUDY    43  36  75 E5        29.45S
HANKSVILLE     CLOUDY    37  32  81 MISG      29.49F
BLANDING       CLOUDY    32  32 100 SE7       29.61F WCI  25

$$

REGIONAL REPORTS     COLORADO/ARIZONA

CITY           SKY/WX    TMP DP  RH WIND       PRES   REMARKS
CRAIG, CO      CLOUDY    28  21  75 E3        29.50F
GRAND JUNCTION CLOUDY    32  32 100 SW6       29.52S WCI  26
RIFLE, CO      CLOUDY    33  29  85 CALM      29.51S
MONTROSE, CO   CLOUDY    35  22  58 NE3       29.54F
CORTEZ, CO     FLURRIES  32  30  92 NE5       29.58S WCI  27
COLORADO CITY  FLURRIES  34  34 100 E7        29.46S WCI  28
PAGE, AZ       CLOUDY    40  31  70 S3        29.46F
GRAND CANYON   LGT SNOW  30  30 100 S16G24    29.48F FOG     WCI  19
KINGMAN, AZ    CLOUDY    41  33  73 E8        29.44F
FLAGSTAFF, AZ  SNOW      28  27  96 SW15      29.51F VSB 1/2 WCI  16

$$

REGIONAL REPORTS    NEVADA/IDAHO/WYOMING

CITY           SKY/WX    TMP DP  RH WIND       PRES   REMARKS
LAS VEGAS, NV  CLOUDY    47  40  76 S9        29.34F
ELY, NY        MIX PCPN  31  26  82 SE20      29.25S WCI  19
ELKO, NV       LGT SNOW  30  27  88 E5        29.22S FOG     WCI  25
POCATELLO, ID  CLOUDY    30  24  78 NE8       29.35F WCI  22
BURLEY, ID     CLOUDY    36  25  64 SW10      29.28F WCI  28
FORT BRIDGER,    N/A     18  18 100 SE6       29.43S WCI  10
EVANSTON, WY   CLOUDY    21  13  71 E12       29.37F WCI   9
ROCK SPRINGS,  CLOUDY    20  18  92 CALM      29.43S FOG

$$




USA.gov is the U.S. government's official web portal to all federal, state and local government web resources and services.